FW4708 Weather Reports


Display with metric or nautical units.
time (UTC)temp
F
wind
direction
speed
MPH
gust
MPH
rain 1hr
in
rain 24hr
in
rain mn
in
humidity
%
barometer
mb
20260906212311 77 116 0.0 2.0 0.01 1.82 1.63 89 1011.7
20260906211834 77 71 0.0 2.0 0.01 1.82 1.63 89 1012.0
20260906211549 77 67 0.0 2.0 0.01 1.82 1.63 89 1012.0
20260906211311 77 68 0.0 3.0 0.01 1.82 1.63 89 1012.0
20260906210815 77 130 1.0 3.0 0.01 1.82 1.63 89 1012.2
20260906210322 77 60 1.0 3.0 0.01 1.82 1.63 89 1012.5
20260906210043 76 86 1.0 3.0 0.01 1.82 1.63 89 1012.5
20260906205825 77 87 1.0 2.0 0.01 1.82 1.63 89 1012.5
20260906205309 77 132 0.0 1.0 0.02 1.82 1.63 89 1012.5
20260906204828 77 342 0.0 1.0 0.03 1.82 1.63 89 1012.5
20260906204532 76 342 0.0 1.0 0.02 1.81 1.62 89 1012.6
20260906204306 77 349 0.0 1.0 0.03 1.81 1.62 89 1012.6
20260906203812 76 349 0.0 1.0 0.05 1.81 1.62 89 1012.4
20260906203315 76 349 0.0 1.0 0.06 1.81 1.62 88 1012.6
20260906203015 76 349 0.0 1.0 0.07 1.81 1.62 89 1012.6
20260906202820 76 123 0.0 1.0 0.08 1.81 1.62 89 1012.6
20260906202306 76 123 0.0 1.0 0.13 1.81 1.62 88 1012.6
20260906201917 76 123 0.0 1.0 0.17 1.81 1.62 88 1012.6
20260906201558 76 68 0.0 1.0 0.20 1.81 1.62 88 1012.6
20260906201316 76 68 0.0 2.0 0.23 1.81 1.62 88 1012.6
20260906200820 76 90 0.0 2.0 0.34 1.81 1.62 88 1012.8
20260906200054 75 83 0.0 3.0 0.75 1.81 1.62 88 1012.9
20260906195307 76 80 0.0 2.0 1.25 1.80 1.61 88 1013.0
20260906194818 75 70 0.0 1.0 1.43 1.79 1.60 88 1013.3
20260906194520 75 66 0.0 2.0 1.50 1.78 1.59 88 1013.4
20260906194323 75 66 0.0 2.0 1.55 1.78 1.59 88 1013.5
20260906193825 75 3 0.0 1.0 1.57 1.76 1.57 87 1013.6
20260906193309 75 68 0.0 1.0 1.55 1.74 1.55 87 1013.8
20260906193059 74 68 0.0 2.0 1.55 1.74 1.55 87 1013.8
20260906192813 75 353 0.0 2.0 1.54 1.73 1.54 86 1013.9
20260906192311 75 5 1.0 2.0 1.49 1.68 1.49 86 1014.0
20260906191815 75 27 0.0 6.0 1.44 1.63 1.44 86 1014.3
20260906191600 74 91 0.0 7.0 1.41 1.60 1.41 86 1014.2
20260906191319 75 74 1.0 10.0 1.39 1.58 1.39 85 1014.2
20260906190821 75 72 5.0 12.0 1.26 1.45 1.28 84 1014.2
20260906190325 75 45 6.0 12.0 0.99 1.18 0.99 82 1014.3
20260906190004 75 73 4.0 11.0 0.77 0.96 0.77 80 1014.3
20260906185803 77 258 3.0 9.0 0.64 0.83 0.64 79 1014.3
20260906185307 79 36 2.0 8.0 0.34 0.53 0.34 79 1014.1
20260906184809 81 256 1.0 9.0 0.16 0.35 0.16 75 1013.9
20260906184500 82 238 1.0 13.0 0.07 0.26 0.07 71 1013.8
20260906184314 84 202 3.0 16.0 0.03 0.22 0.03 69 1013.7
20260906183817 87 186 4.0 17.0 0.00 0.19 0.00 65 1013.3
20260906183301 89 110 8.0 17.0 0.00 0.19 0.00 64 1013.4
20260906183105 89 99 3.0 7.0 0.00 0.19 0.00 65 1013.4
20260906182804 90 91 3.0 7.0 0.00 0.19 0.00 66 1013.4
20260906182308 91 64 3.0 7.0 0.00 0.19 0.00 64 1013.2
20260906181813 93 100 3.0 5.0 0.00 0.19 0.00 60 1013.0
20260906181550 93 60 1.0 5.0 0.00 0.19 0.00 57 1012.9
20260906181310 94 253 0.0 1.0 0.00 0.19 0.00 52 1013.0
20260906180813 94 282 0.0 1.0 0.00 0.19 0.00 52 1013.2
20260906180311 94 247 0.0 1.0 0.00 0.19 0.00 52 1013.4
20260906180019 93 96 0.0 1.0 0.00 0.19 0.00 52 1013.5
20260906175817 93 103 0.0 2.0 0.00 0.22 0.00 50 1013.4
20260906175321 93 356 0.0 2.0 0.00 0.22 0.00 50 1013.3
20260906174820 93 77 1.0 2.0 0.00 0.22 0.00 52 1013.3
20260906174524 93 62 1.0 3.0 0.00 0.22 0.00 51 1013.4
20260906174325 93 105 0.0 3.0 0.00 0.22 0.00 53 1013.3
20260906173808 93 240 1.0 5.0 0.00 0.22 0.00 52 1013.4
20260906173313 94 288 1.0 5.0 0.00 0.22 0.00 51 1013.3
20260906173016 93 271 0.0 6.0 0.00 0.22 0.00 52 1013.3
20260906172817 94 278 0.0 6.0 0.00 0.22 0.00 52 1013.3
20260906172320 95 6 3.0 6.0 0.00 0.22 0.00 50 1013.2
20260906171824 95 30 0.0 3.0 0.00 0.22 0.00 52 1013.2
20260906171516 94 242 0.0 3.0 0.00 0.22 0.00 50 1013.3
20260906171328 95 236 1.0 3.0 0.00 0.22 0.00 53 1013.2
20260906170810 94 229 1.0 4.0 0.00 0.22 0.00 51 1013.2
20260906170313 96 229 2.0 4.0 0.00 0.22 0.00 49 1013.3
20260906170041 95 235 0.0 3.0 0.00 0.22 0.00 50 1013.3
20260906165810 96 52 1.0 5.0 0.00 0.22 0.00 48 1013.3
20260906165337 95 254 1.0 5.0 0.00 0.22 0.00 49 1013.4
20260906164819 96 212 0.0 5.0 0.00 0.22 0.00 49 1013.4
20260906164505 95 35 0.0 5.0 0.00 0.22 0.00 50 1013.4
20260906164302 96 245 2.0 5.0 0.00 0.22 0.00 48 1013.4
20260906163804 95 18 0.0 5.0 0.00 0.22 0.00 49 1013.4
20260906163307 94 259 2.0 5.0 0.00 0.22 0.00 48 1013.4
20260906163006 94 226 0.0 3.0 0.00 0.22 0.00 50 1013.5
20260906162812 95 230 1.0 3.0 0.00 0.22 0.00 52 1013.5
20260906162310 95 238 0.0 3.0 0.00 0.22 0.00 51 1013.5
20260906161835 94 24 1.0 5.0 0.00 0.22 0.00 55 1013.7
20260906161518 93 214 0.0 5.0 0.00 0.22 0.00 53 1013.6
20260906161338 93 236 2.0 5.0 0.00 0.22 0.00 52 1013.7
20260906160813 94 220 1.0 5.0 0.00 0.22 0.00 56 1013.8
20260906160346 93 235 1.0 7.0 0.00 0.22 0.00 53 1013.8
20260906160022 92 316 1.0 7.0 0.00 0.22 0.00 54 1013.9
20260906155829 93 244 2.0 7.0 0.00 0.22 0.00 53 1013.8
20260906155334 93 231 1.0 5.0 0.00 0.22 0.00 55 1014.0
20260906154813 92 256 0.0 5.0 0.00 0.22 0.00 57 1014.3
20260906154552 92 241 1.0 5.0 0.00 0.22 0.00 55 1014.3
20260906154311 92 278 1.0 4.0 0.00 0.22 0.00 55 1014.3
20260906153809 91 239 2.0 4.0 0.00 0.22 0.00 59 1014.3
20260906153304 91 235 1.0 5.0 0.00 0.22 0.00 59 1014.3
20260906153026 91 200 2.0 5.0 0.00 0.22 0.00 57 1014.3
20260906152806 92 230 1.0 3.0 0.00 0.22 0.00 58 1014.4
20260906152311 92 257 0.0 4.0 0.00 0.22 0.00 59 1014.4
20260906151815 92 315 1.0 3.0 0.00 0.22 0.00 60 1014.4
20260906151511 91 258 0.0 5.0 0.00 0.22 0.00 59 1014.4
20260906151301 92 253 0.0 5.0 0.00 0.22 0.00 61 1014.4
20260906150803 91 233 1.0 3.0 0.00 0.22 0.00 60 1014.3
20260906150307 91 227 0.0 3.0 0.00 0.22 0.00 61 1014.3
20260906150015 90 263 1.0 3.0 0.00 0.22 0.00 61 1014.2
20260906145811 90 243 0.0 2.0 0.00 0.22 0.00 64 1014.2
20260906145314 91 264 0.0 1.0 0.00 0.22 0.00 63 1014.3
20260906144812 90 219 0.0 2.0 0.00 0.22 0.00 65 1014.4
20260906144559 89 15 0.0 2.0 0.00 0.22 0.00 66 1014.4
20260906144333 89 214 0.0 2.0 0.00 0.22 0.00 66 1014.5
20260906143825 89 238 0.0 3.0 0.00 0.22 0.00 66 1014.5
20260906143329 88 242 0.0 1.0 0.00 0.22 0.00 68 1014.6
20260906143042 87 4 0.0 1.0 0.00 0.22 0.00 68 1014.6
20260906142811 88 233 0.0 1.0 0.00 0.22 0.00 67 1014.6
20260906142308 87 23 0.0 1.0 0.00 0.22 0.00 69 1014.4
20260906141833 87 317 0.0 1.0 0.00 0.22 0.00 69 1014.4
20260906141544 86 316 0.0 1.0 0.00 0.22 0.00 68 1014.4
20260906141340 87 325 0.0 1.0 0.00 0.22 0.00 70 1014.2
20260906140822 87 250 0.0 1.0 0.00 0.22 0.00 70 1014.3
20260906140327 86 340 0.0 2.0 0.00 0.22 0.00 72 1014.3
20260906140021 84 241 0.0 2.0 0.00 0.22 0.00 73 1014.3
20260906135809 85 231 0.0 2.0 0.00 0.22 0.00 73 1014.4
20260906135312 84 242 0.0 2.0 0.00 0.22 0.00 76 1014.4
20260906134816 83 224 0.0 0.0 0.00 0.22 0.00 78 1014.2
20260906134614 82 321 0.0 1.0 0.00 0.22 0.00 79 1014.2
20260906134315 82 324 0.0 1.0 0.00 0.22 0.00 81 1014.2
20260906133849 82 350 0.0 1.0 0.00 0.22 0.00 82 1014.3
20260906133308 81 41 0.0 2.0 0.00 0.22 0.00 81 1014.3
20260906133028 80 41 0.0 3.0 0.00 0.22 0.00 82 1014.2
20260906132834 81 41 0.0 3.0 0.00 0.22 0.00 82 1014.3
20260906132317 81 307 0.0 3.0 0.00 0.22 0.00 82 1014.3
20260906131802 81 309 0.0 0.0 0.00 0.22 0.00 83 1014.1
20260906131509 81 309 0.0 0.0 0.00 0.22 0.00 83 1014.2
20260906131306 81 309 0.0 0.0 0.00 0.22 0.00 84 1014.1
20260906130810 81 309 0.0 0.0 0.00 0.22 0.00 84 1014.1
20260906130313 80 309 0.0 0.0 0.00 0.22 0.00 84 1014.3
20260906130054 80 309 0.0 0.0 0.00 0.22 0.00 84 1014.3
20260906125811 80 309 0.0 1.0 0.00 0.22 0.00 85 1014.2
20260906125315 80 309 0.0 1.0 0.00 0.22 0.00 85 1014.2
20260906124820 80 332 0.0 1.0 0.00 0.22 0.00 86 1014.1
20260906124555 79 333 0.0 1.0 0.00 0.22 0.00 87 1014.1
20260906124304 79 332 0.0 1.0 0.00 0.22 0.00 88 1014.1
20260906123807 79 332 0.0 0.0 0.00 0.22 0.00 88 1014.1
20260906123307 79 332 0.0 0.0 0.00 0.22 0.00 89 1014.0
20260906123052 78 332 0.0 0.0 0.00 0.22 0.00 89 1013.9
20260906122812 79 332 0.0 0.0 0.00 0.22 0.00 89 1013.9
20260906122336 79 332 0.0 0.0 0.00 0.22 0.00 90 1014.0
20260906121812 78 332 0.0 0.0 0.00 0.22 0.00 90 1014.0
20260906121546 78 332 0.0 0.0 0.00 0.22 0.00 90 1014.1
20260906121345 78 332 0.0 0.0 0.00 0.22 0.00 90 1014.0
20260906120828 78 332 0.0 1.0 0.00 0.22 0.00 90 1013.9
20260906120331 78 332 0.0 1.0 0.00 0.22 0.00 90 1013.8
20260906120001 77 334 0.0 0.0 0.00 0.22 0.00 90 1013.7
20260906115835 78 334 0.0 0.0 0.00 0.22 0.00 90 1013.8
20260906115342 78 334 0.0 0.0 0.00 0.22 0.00 90 1013.7
20260906114825 77 334 0.0 0.0 0.00 0.22 0.00 90 1013.8
20260906114524 77 334 0.0 1.0 0.00 0.22 0.00 90 1013.7
20260906114329 77 334 0.0 1.0 0.00 0.22 0.00 90 1013.7
20260906113328 77 345 0.0 0.0 0.00 0.22 0.00 90 1013.6
20260906113034 76 345 0.0 0.0 0.00 0.22 0.00 90 1013.4
20260906112809 77 345 0.0 0.0 0.00 0.22 0.00 90 1013.4
20260906112312 77 345 0.0 0.0 0.00 0.22 0.00 90 1013.3
20260906111816 76 345 0.0 0.0 0.00 0.22 0.00 90 1013.3
20260906111510 76 345 0.0 0.0 0.00 0.22 0.00 90 1013.3
20260906111301 76 345 0.0 0.0 0.00 0.22 0.00 90 1013.3
20260906110806 76 345 0.0 0.0 0.00 0.22 0.00 90 1013.1
20260906110309 76 345 0.0 0.0 0.00 0.22 0.00 90 1012.9
20260906110007 76 345 0.0 0.0 0.00 0.22 0.00 90 1012.9
20260906105812 76 345 0.0 0.0 0.00 0.22 0.00 90 1012.8
20260906105313 76 345 0.0 0.0 0.00 0.22 0.00 90 1012.8
20260906104507 76 345 0.0 0.0 0.00 0.22 0.00 90 1012.5
20260906104321 76 345 0.0 0.0 0.00 0.22 0.00 90 1012.6
20260906103805 76 345 0.0 0.0 0.00 0.22 0.00 90 1012.6
20260906103307 76 345 0.0 0.0 0.00 0.22 0.00 90 1012.5
20260906103008 76 345 0.0 0.0 0.00 0.22 0.00 90 1012.4
20260906102812 76 345 0.0 0.0 0.00 0.22 0.00 90 1012.4
20260906102310 76 345 0.0 0.0 0.00 0.22 0.00 90 1012.3
20260906101813 77 345 0.0 0.0 0.00 0.22 0.00 90 1012.3
20260906101542 76 345 0.0 0.0 0.00 0.22 0.00 90 1012.3
20260906101313 77 345 0.0 0.0 0.00 0.22 0.00 90 1012.3
20260906100837 77 345 0.0 0.0 0.00 0.22 0.00 90 1012.2
20260906100313 77 345 0.0 0.0 0.00 0.22 0.00 90 1012.1
20260906100033 76 345 0.0 0.0 0.00 0.22 0.00 90 1012.0
20260906095838 77 345 0.0 0.0 0.00 0.22 0.00 90 1011.9
20260906095322 77 345 0.0 0.0 0.00 0.22 0.00 90 1011.9
20260906094805 77 345 0.0 0.0 0.00 0.22 0.00 90 1011.7
20260906094513 76 345 0.0 0.0 0.00 0.22 0.00 90 1011.7
20260906094310 77 345 0.0 0.0 0.00 0.22 0.00 90 1011.7
20260906093830 77 345 0.0 0.0 0.00 0.22 0.00 90 1011.7
20260906093313 77 345 0.0 0.0 0.00 0.22 0.00 90 1011.8
20260906093059 76 345 0.0 0.0 0.00 0.22 0.00 90 1011.9
20260906092836 77 345 0.0 0.0 0.00 0.22 0.00 90 1012.0
20260906092328 77 345 0.0 0.0 0.00 0.22 0.00 90 1012.0
20260906091830 77 345 0.0 0.0 0.00 0.22 0.00 90 1012.0
20260906091509 76 345 0.0 0.0 0.00 0.22 0.00 90 1011.9
20260906091332 76 345 0.0 0.0 0.00 0.22 0.00 90 1011.9
20260906090816 77 345 0.0 0.0 0.00 0.22 0.00 90 1012.1
20260906090314 77 345 0.0 0.0 0.00 0.22 0.00 90 1012.0
20260906090037 76 345 0.0 0.0 0.00 0.22 0.00 90 1011.9
20260906085822 77 345 0.0 0.0 0.00 0.22 0.00 90 1011.9
20260906085325 76 345 0.0 0.0 0.00 0.22 0.00 90 1011.8
20260906084828 76 345 0.0 0.0 0.00 0.22 0.00 90 1011.7
20260906084522 76 345 0.0 0.0 0.00 0.22 0.00 89 1011.7
20260906084329 76 345 0.0 0.0 0.00 0.22 0.00 89 1011.7
20260906083813 76 345 0.0 0.0 0.00 0.22 0.00 89 1011.8
20260906083312 76 345 0.0 0.0 0.00 0.22 0.00 89 1011.7
20260906083037 76 345 0.0 0.0 0.00 0.22 0.00 89 1011.7
20260906082816 76 345 0.0 0.0 0.00 0.22 0.00 89 1011.6
20260906082320 76 345 0.0 0.0 0.00 0.22 0.00 89 1011.5
20260906081804 76 345 0.0 0.0 0.00 0.22 0.00 89 1011.5
20260906081513 76 345 0.0 0.0 0.00 0.22 0.00 89 1011.7
20260906081308 76 345 0.0 0.0 0.00 0.22 0.00 89 1011.6
20260906080808 77 345 0.0 0.0 0.00 0.22 0.00 89 1011.9
20260906080313 77 345 0.0 0.0 0.00 0.22 0.00 89 1011.9
20260906080009 76 345 0.0 0.0 0.00 0.22 0.00 89 1011.9
20260906075817 77 345 0.0 0.0 0.00 0.22 0.00 89 1011.9
20260906075315 77 345 0.0 0.0 0.00 0.22 0.00 89 1011.9
20260906074807 77 345 0.0 0.0 0.00 0.22 0.00 89 1011.9
20260906074502 76 345 0.0 0.0 0.00 0.22 0.00 89 1012.0
20260906074312 77 345 0.0 0.0 0.00 0.22 0.00 89 1012.0
20260906073815 77 345 0.0 0.0 0.00 0.22 0.00 89 1012.3
20260906073316 77 345 0.0 1.0 0.00 0.22 0.00 89 1012.3
20260906073002 76 345 0.0 1.0 0.00 0.22 0.00 89 1012.3
20260906072820 77 345 0.0 1.0 0.00 0.22 0.00 89 1012.3
20260906072306 77 345 0.0 1.0 0.00 0.22 0.00 89 1012.3
20260906071809 77 345 0.0 0.0 0.00 0.22 0.00 89 1012.3
20260906071504 76 353 0.0 0.0 0.00 0.22 0.00 89 1012.4
20260906071313 77 353 0.0 0.0 0.00 0.22 0.00 89 1012.4
20260906070812 77 354 0.0 0.0 0.00 0.22 0.00 89 1012.3
20260906070316 77 354 0.0 0.0 0.00 0.22 0.00 89 1012.4
20260906070053 77 354 0.0 0.0 0.00 0.22 0.00 89 1012.3
20260906065824 77 354 0.0 0.0 0.00 0.22 0.00 89 1012.2
20260906065327 77 354 0.0 0.0 0.00 0.22 0.00 89 1012.2
20260906064831 77 354 0.0 0.0 0.00 0.22 0.00 89 1012.4
20260906064507 77 354 0.0 0.0 0.00 0.22 0.00 89 1012.4
20260906064313 77 354 0.0 0.0 0.00 0.22 0.00 89 1012.4
20260906063816 77 354 0.0 0.0 0.00 0.22 0.00 89 1012.4
20260906063312 77 354 0.0 0.0 0.00 0.22 0.00 89 1012.6
20260906063046 77 354 0.0 0.0 0.00 0.22 0.00 89 1012.7
20260906062834 78 354 0.0 0.0 0.00 0.22 0.00 89 1012.8
20260906062338 78 354 0.0 0.0 0.00 0.22 0.00 89 1012.8
20260906061814 78 354 0.0 0.0 0.00 0.22 0.00 89 1013.0
20260906061548 77 354 0.0 1.0 0.00 0.22 0.00 89 1013.0
20260906061320 78 354 0.0 1.0 0.00 0.22 0.00 89 1013.0
20260906060804 78 354 0.0 1.0 0.00 0.22 0.00 89 1013.2
20260906060310 78 295 0.0 1.0 0.00 0.22 0.00 89 1013.2
20260906060003 77 295 0.0 2.0 0.00 0.22 0.00 89 1013.3
20260906055817 78 295 0.0 3.0 0.00 0.22 0.00 89 1013.3
20260906055332 78 359 0.0 3.0 0.00 0.22 0.00 89 1013.5
20260906054825 78 285 0.0 1.0 0.00 0.22 0.00 89 1013.4
20260906054530 77 335 0.0 2.0 0.00 0.22 0.00 89 1013.5
20260906054324 78 335 0.0 2.0 0.00 0.22 0.00 89 1013.5
20260906053825 78 342 0.0 1.0 0.00 0.22 0.00 89 1013.6
20260906053308 78 297 0.0 1.0 0.00 0.22 0.00 89 1013.7
20260906053006 77 297 0.0 1.0 0.00 0.22 0.00 89 1013.5
20260906052811 78 302 0.0 1.0 0.00 0.22 0.00 89 1013.5
20260906052317 78 112 0.0 0.0 0.00 0.22 0.00 88 1013.2
20260906051814 78 112 0.0 0.0 0.00 0.22 0.00 88 1013.1
20260906051555 77 112 0.0 0.0 0.00 0.22 0.00 88 1013.1
20260906051313 78 112 0.0 0.0 0.00 0.22 0.00 88 1013.2
20260906050817 78 112 0.0 0.0 0.00 0.22 0.00 88 1013.0
20260906050315 77 112 0.0 0.0 0.00 0.22 0.00 88 1012.9
20260906050041 77 112 0.0 0.0 0.00 0.22 0.00 88 1012.9
20260906045812 78 112 0.0 0.0 0.00 0.22 0.00 88 1012.8
20260906045318 78 112 0.0 1.0 0.00 0.22 0.00 88 1012.5
20260906044839 78 111 0.0 1.0 0.00 0.22 0.00 88 1012.5
20260906044502 77 112 0.0 1.0 0.00 0.22 0.00 88 1012.6
20260906044321 78 112 0.0 1.0 0.00 0.22 0.00 88 1012.8
20260906043804 78 111 0.0 1.0 0.00 0.22 0.00 88 1012.9
20260906043309 78 112 0.0 2.0 0.00 0.22 0.00 88 1013.1
20260906043002 77 112 0.0 2.0 0.00 0.22 0.00 88 1013.1
20260906042813 78 101 1.0 2.0 0.00 0.22 0.00 88 1013.1
20260906042317 78 83 0.0 2.0 0.00 0.22 0.00 88 1013.1
20260906041814 78 79 0.0 3.0 0.00 0.22 0.00 88 1013.2
20260906041308 78 113 1.0 3.0 0.00 0.22 0.00 88 1013.3
20260906040813 77 221 0.0 1.0 0.00 0.22 0.00 88 1013.5
20260906040311 77 221 0.0 1.0 0.00 0.22 0.00 88 1013.5
20260906040035 77 221 0.0 1.0 0.00 0.22 0.00 88 1013.6
20260906035809 77 221 0.0 0.0 0.00 0.22 0.22 88 1013.7
20260906035317 77 228 0.0 0.0 0.00 0.22 0.22 88 1013.8
20260906034824 77 228 0.0 0.0 0.00 0.22 0.22 87 1013.8
20260906034513 77 228 0.0 0.0 0.00 0.22 0.22 87 1013.7
20260906034305 78 228 0.0 0.0 0.00 0.22 0.22 87 1013.8
20260906033809 78 228 0.0 1.0 0.00 0.22 0.22 88 1014.0
20260906033312 78 228 0.0 3.0 0.00 0.22 0.22 88 1014.0
20260906033058 77 238 0.0 3.0 0.00 0.22 0.22 88 1014.1
20260906032811 78 237 1.0 3.0 0.00 0.22 0.22 88 1014.1
20260906032308 78 242 0.0 3.0 0.00 0.22 0.22 88 1014.3
20260906031834 78 234 1.0 2.0 0.00 0.22 0.22 88 1014.3
20260906031507 77 239 0.0 1.0 0.00 0.22 0.22 88 1014.3
20260906031317 78 235 0.0 3.0 0.00 0.22 0.22 88 1014.4
20260906030842 78 242 0.0 3.0 0.00 0.22 0.22 88 1014.5
20260906030305 78 238 1.0 3.0 0.00 0.22 0.22 88 1014.7
20260906030057 77 242 0.0 3.0 0.00 0.22 0.22 88 1014.8
20260906025817 78 228 1.0 3.0 0.00 0.22 0.22 88 1015.0
20260906025330 78 238 0.0 4.0 0.00 0.22 0.22 88 1015.2
20260906024829 77 234 0.0 4.0 0.00 0.22 0.22 88 1015.3
20260906024517 77 240 0.0 1.0 0.00 0.22 0.22 88 1015.3
20260906024331 77 248 0.0 3.0 0.00 0.22 0.22 88 1015.3
20260906023814 77 226 0.0 3.0 0.00 0.22 0.22 88 1015.4
20260906023317 77 238 0.0 1.0 0.00 0.22 0.22 88 1015.4
20260906023042 77 238 0.0 1.0 0.00 0.22 0.22 88 1015.4
20260906022815 77 237 0.0 1.0 0.00 0.22 0.22 88 1015.5
20260906022321 77 243 0.0 1.0 0.00 0.22 0.22 88 1015.6
20260906021825 77 244 0.0 0.0 0.00 0.22 0.22 88 1015.6
20260906021528 77 244 0.0 1.0 0.00 0.22 0.22 88 1015.5
20260906021330 77 244 0.0 1.0 0.00 0.22 0.22 88 1015.5
20260906020804 77 244 0.0 1.0 0.00 0.22 0.22 88 1015.5
20260906020338 77 243 0.0 1.0 0.00 0.22 0.22 88 1015.6
20260906020001 77 248 0.0 1.0 0.00 0.22 0.22 88 1015.6
20260906015803 77 248 0.0 1.0 0.00 0.22 0.22 88 1015.8
20260906015307 77 248 0.0 1.0 0.01 0.22 0.22 88 1015.7
20260906014811 77 248 0.0 1.0 0.01 0.22 0.22 88 1015.6
20260906014502 77 248 0.0 1.0 0.01 0.22 0.22 88 1015.5
20260906014311 77 248 0.0 1.0 0.01 0.22 0.22 88 1015.5
20260906013809 77 342 0.0 0.0 0.01 0.22 0.22 88 1015.2
20260906013313 77 342 0.0 0.0 0.02 0.22 0.22 88 1015.1
20260906013054 76 342 0.0 0.0 0.02 0.22 0.22 88 1015.1
20260906012811 77 342 0.0 0.0 0.02 0.22 0.22 88 1015.0
20260906012318 77 342 0.0 0.0 0.02 0.22 0.22 88 1014.9
20260906011821 77 342 0.0 0.0 0.03 0.22 0.22 87 1014.8
20260906011520 76 342 0.0 1.0 0.03 0.22 0.22 87 1014.7
20260906011326 77 342 0.0 1.0 0.03 0.22 0.22 87 1014.6
20260906010830 77 342 0.0 1.0 0.04 0.22 0.22 87 1014.6
20260906010312 77 342 0.0 1.0 0.05 0.22 0.22 87 1014.5
20260906005816 77 353 0.0 1.0 0.05 0.22 0.22 87 1014.5
20260906005320 77 7 0.0 1.0 0.05 0.21 0.21 87 1014.4
20260906004804 77 354 0.0 2.0 0.05 0.21 0.21 87 1014.3
20260906004604 77 354 0.0 2.0 0.05 0.21 0.21 87 1014.3
20260906004308 77 303 0.0 2.0 0.05 0.21 0.21 87 1014.3
20260906003812 77 356 0.0 2.0 0.06 0.21 0.21 87 1014.2
20260906003311 78 79 0.0 0.0 0.05 0.20 0.20 87 1014.2
20260906003044 77 79 0.0 0.0 0.05 0.20 0.20 87 1014.3
20260906002809 78 79 0.0 0.0 0.06 0.20 0.20 87 1014.3
20260906002342 78 79 0.0 0.0 0.06 0.20 0.20 87 1014.2
20260906001844 78 79 0.0 0.0 0.05 0.19 0.19 87 1014.1
20260906001504 77 79 0.0 0.0 0.05 0.19 0.19 87 1014.0
20260906001307 77 79 0.0 0.0 0.04 0.18 0.18 86 1013.9
20260906000810 77 79 0.0 0.0 0.04 0.18 0.18 86 1014.0
20260906000315 77 79 0.0 0.0 0.03 0.17 0.17 86 1013.9
20260905235813 78 79 0.0 0.0 0.03 0.17 0.17 86 1013.8
20260905235339 78 79 0.0 0.0 0.02 0.16 0.16 86 1013.9
20260905234822 77 79 0.0 0.0 0.02 0.16 0.16 86 1013.9
20260905234524 77 79 0.0 0.0 0.02 0.16 0.16 85 1014.0
20260905234316 78 79 0.0 0.0 0.02 0.16 0.16 85 1014.1
20260905233817 78 79 0.0 0.0 0.01 0.15 0.15 86 1014.2
20260905233338 78 79 0.0 0.0 0.01 0.15 0.15 85 1014.1
20260905233004 77 79 0.0 0.0 0.01 0.15 0.15 85 1014.2
20260905232821 77 79 0.0 1.0 0.00 0.14 0.14 85 1014.1
20260905232314 77 79 0.0 2.0 0.01 0.14 0.14 84 1014.1
20260905231817 78 79 1.0 4.0 0.03 0.14 0.14 84 1014.2
20260905231606 77 30 0.0 4.0 0.04 0.14 0.14 84 1014.1
20260905231315 77 311 1.0 4.0 0.06 0.14 0.14 84 1014.0
20260905230902 77 82 0.0 3.0 0.10 0.14 0.14 83 1014.1
20260905230320 77 74 0.0 4.0 0.11 0.14 0.14 82 1014.2
20260905230104 77 68 0.0 4.0 0.11 0.14 0.14 83 1014.2
20260905225803 77 58 1.0 4.0 0.11 0.14 0.14 83 1014.1
20260905225308 77 68 2.0 4.0 0.11 0.14 0.14 82 1014.0
20260905224811 77 100 0.0 5.0 0.11 0.14 0.14 83 1014.1
20260905224616 77 69 0.0 5.0 0.11 0.14 0.14 84 1014.2
20260905224315 78 92 1.0 6.0 0.11 0.14 0.14 83 1014.3
20260905223308 79 58 1.0 3.0 0.11 0.14 0.14 84 1014.4
20260905223002 78 89 0.0 4.0 0.11 0.14 0.14 84 1014.4
20260905222808 79 72 0.0 4.0 0.11 0.14 0.14 84 1014.4
20260905222312 79 349 2.0 8.0 0.10 0.13 0.13 83 1014.7
20260905221816 80 340 3.0 9.0 0.08 0.11 0.11 80 1014.6
20260905221505 80 8 3.0 15.0 0.06 0.09 0.09 79 1014.4
20260905221317 81 13 5.0 15.0 0.05 0.08 0.08 78 1014.1
20260905220814 84 333 7.0 15.0 0.01 0.04 0.04 73 1013.9
20260905220318 85 329 4.0 10.0 0.00 0.03 0.03 70 1013.9
20260905220048 85 285 3.0 10.0 0.00 0.03 0.03 69 1013.8
20260905215851 85 340 2.0 10.0 0.00 0.03 0.03 69 1013.7
20260905215306 86 274 1.0 5.0 0.00 0.03 0.03 67 1013.4
20260905214838 87 356 2.0 5.0 0.00 0.03 0.03 65 1013.5
20260905214504 86 354 1.0 5.0 0.00 0.03 0.03 64 1013.4
20260905214323 87 336 1.0 5.0 0.00 0.03 0.03 63 1013.3
20260905213815 88 268 2.0 5.0 0.00 0.03 0.03 61 1013.0
20260905213339 90 10 1.0 5.0 0.00 0.03 0.03 61 1013.2
20260905213039 90 271 0.0 3.0 0.00 0.03 0.03 61 1013.1
20260905212811 90 276 0.0 3.0 0.00 0.03 0.03 61 1013.0